| time (UTC) | temp F | wind direction | speed MPH | gust MPH | rain 1hr in | rain 24hr in | rain mn in | humidity % | barometer mb |
| 20260831101345 | 71 | 0.0 | 0.0 | 0.00 | 0.00 | 0.00 | 57 | 1016.9 | |
| 20260831100345 | 69 | 0.0 | 0.0 | 0.00 | 0.00 | 0.00 | 61 | 1017.0 | |
| 20260831095345 | 68 | 0.0 | 0.0 | 0.00 | 0.00 | 0.00 | 63 | 1017.0 | |
| 20260831093120 | 69 | 0.0 | 0.0 | 0.00 | 0.00 | 0.00 | 62 | 1016.9 | |
| 20260831092121 | 69 | 0.0 | 0.0 | 0.00 | 0.00 | 0.00 | 60 | 1016.7 | |
| 20260831091120 | 69 | 0.0 | 0.0 | 0.00 | 0.00 | 0.00 | 59 | 1016.9 | |
| 20260831090120 | 70 | 0.0 | 0.0 | 0.00 | 0.00 | 0.00 | 60 | 1016.7 | |
| 20260831085120 | 69 | 0.0 | 0.0 | 0.00 | 0.00 | 0.00 | 62 | 1016.5 | |
| 20260831084120 | 69 | 0.0 | 0.0 | 0.00 | 0.00 | 0.00 | 63 | 1016.4 | |
| 20260831083120 | 67 | 0.0 | 0.0 | 0.00 | 0.00 | 0.00 | 67 | 1016.3 | |
| 20260831082120 | 66 | 0.0 | 0.0 | 0.00 | 0.00 | 0.00 | 69 | 1016.4 | |
| 20260831081120 | 65 | 0.0 | 0.0 | 0.00 | 0.00 | 0.00 | 72 | 1016.4 | |
| 20260831080120 | 64 | 0.0 | 0.0 | 0.00 | 0.00 | 0.00 | 73 | 1016.3 | |
| 20260831075124 | 64 | 0.0 | 0.0 | 0.00 | 0.00 | 0.00 | 71 | 1016.4 | |
| 20260831074120 | 64 | 0.0 | 0.0 | 0.00 | 0.00 | 0.00 | 69 | 1016.4 | |
| 20260831073120 | 64 | 0.0 | 0.0 | 0.00 | 0.00 | 0.00 | 72 | 1016.0 | |
| 20260831072120 | 63 | 0.0 | 0.0 | 0.00 | 0.00 | 0.00 | 72 | 1015.8 | |
| 20260831071120 | 64 | 0.0 | 0.0 | 0.00 | 0.00 | 0.00 | 70 | 1015.6 | |
| 20260831070120 | 65 | 0.0 | 0.0 | 0.00 | 0.00 | 0.00 | 67 | 1016.0 | |
| 20260831061410 | 65 | 0.0 | 0.0 | 0.00 | 0.00 | 0.00 | 65 | 1015.5 | |
| 20260831060410 | 65 | 0.0 | 0.0 | 0.00 | 0.00 | 0.00 | 65 | 1015.7 | |
| 20260831054146 | 65 | 0.0 | 0.0 | 0.00 | 0.00 | 0.00 | 65 | 1016.0 | |
| 20260831053145 | 65 | 0.0 | 0.0 | 0.00 | 0.00 | 0.00 | 64 | 1016.1 | |
| 20260831052146 | 65 | 0.0 | 0.0 | 0.00 | 0.00 | 0.00 | 63 | 1016.2 | |
| 20260831051146 | 65 | 0.0 | 0.0 | 0.00 | 0.00 | 0.00 | 62 | 1016.1 | |
| 20260831050146 | 66 | 0.0 | 0.0 | 0.00 | 0.00 | 0.00 | 61 | 1015.7 | |
| 20260831045145 | 67 | 0.0 | 0.0 | 0.00 | 0.00 | 0.00 | 59 | 1015.9 | |
| 20260831044146 | 67 | 0.0 | 0.0 | 0.00 | 0.00 | 0.00 | 59 | 1015.8 | |
| 20260831043146 | 67 | 0.0 | 0.0 | 0.00 | 0.00 | 0.00 | 58 | 1015.8 | |
| 20260831042146 | 67 | 0.0 | 0.0 | 0.00 | 0.00 | 0.00 | 58 | 1015.8 | |
| 20260831041146 | 66 | 0.0 | 0.0 | 0.00 | 0.00 | 0.00 | 61 | 1016.0 | |
| 20260831034922 | 66 | 0.0 | 0.0 | 0.00 | 0.00 | 0.00 | 58 | 1016.4 | |
| 20260831033922 | 67 | 0.0 | 0.0 | 0.00 | 0.00 | 0.00 | 57 | 1016.3 | |
| 20260831031705 | 63 | 0.0 | 0.0 | 0.00 | 0.00 | 0.00 | 60 | 1016.3 | |
| 20260831030659 | 66 | 0.0 | 0.0 | 0.00 | 0.00 | 0.00 | 55 | 1016.3 | |
| 20260831024435 | 70 | 0.0 | 0.0 | 0.00 | 0.00 | 0.00 | 49 | 1016.6 | |
| 20260831023435 | 70 | 0.0 | 0.0 | 0.00 | 0.00 | 0.00 | 48 | 1016.3 | |
| 20260831022435 | 70 | 0.0 | 0.0 | 0.00 | 0.00 | 0.00 | 49 | 1016.3 | |
| 20260831021435 | 71 | 0.0 | 0.0 | 0.00 | 0.00 | 0.00 | 48 | 1016.3 | |
| 20260831020435 | 70 | 0.0 | 0.0 | 0.00 | 0.00 | 0.00 | 48 | 1016.1 | |
| 20260831015435 | 69 | 0.0 | 0.0 | 0.00 | 0.00 | 0.00 | 50 | 1016.6 | |
| 20260831013212 | 71 | 0.0 | 0.0 | 0.00 | 0.00 | 0.00 | 47 | 1016.5 | |
| 20260831012212 | 70 | 0.0 | 0.0 | 0.00 | 0.00 | 0.00 | 48 | 1016.4 | |
| 20260831011211 | 70 | 0.0 | 0.0 | 0.00 | 0.00 | 0.00 | 48 | 1016.6 | |
| 20260831010212 | 70 | 0.0 | 0.0 | 0.00 | 0.00 | 0.00 | 48 | 1016.6 | |
| 20260831003947 | 69 | 0.0 | 0.0 | 0.00 | 0.00 | 0.00 | 48 | 1016.8 | |
| 20260831002947 | 69 | 0.0 | 0.0 | 0.00 | 0.00 | 0.00 | 48 | 1016.8 | |
| 20260831001947 | 69 | 0.0 | 0.0 | 0.00 | 0.00 | 0.00 | 48 | 1016.9 | |
| 20260831000948 | 69 | 0.0 | 0.0 | 0.00 | 0.00 | 0.00 | 49 | 1017.0 | |
| 20260830235947 | 69 | 0.0 | 0.0 | 0.00 | 0.00 | 0.00 | 50 | 1017.1 | |
| 20260830234947 | 68 | 0.0 | 0.0 | 0.00 | 0.00 | 0.00 | 51 | 1017.1 | |
| 20260830233948 | 67 | 0.0 | 0.0 | 0.00 | 0.00 | 0.00 | 53 | 1017.2 | |
| 20260830232947 | 66 | 0.0 | 0.0 | 0.00 | 0.00 | 0.00 | 54 | 1017.1 | |
| 20260830231947 | 69 | 0.0 | 0.0 | 0.00 | 0.00 | 0.00 | 50 | 1017.2 | |
| 20260830230947 | 70 | 0.0 | 0.0 | 0.00 | 0.00 | 0.00 | 47 | 1017.3 | |
| 20260830224724 | 70 | 0.0 | 0.0 | 0.00 | 0.00 | 0.00 | 47 | 1017.2 | |
| 20260830222500 | 70 | 0.0 | 0.0 | 0.00 | 0.00 | 0.00 | 47 | 1017.2 | |
| 20260830221500 | 70 | 0.0 | 0.0 | 0.00 | 0.00 | 0.00 | 47 | 1017.3 | |
| 20260830220500 | 70 | 0.0 | 0.0 | 0.00 | 0.00 | 0.00 | 47 | 1017.4 | |
| 20260830215500 | 70 | 0.0 | 0.0 | 0.00 | 0.00 | 0.00 | 46 | 1017.5 | |
| 20260830214500 | 70 | 0.0 | 0.0 | 0.00 | 0.00 | 0.00 | 45 | 1017.4 | |
| 20260830212236 | 71 | 0.0 | 0.0 | 0.00 | 0.00 | 0.00 | 44 | 1017.2 | |
| 20260830210013 | 71 | 0.0 | 0.0 | 0.00 | 0.00 | 0.00 | 45 | 1017.3 | |
| 20260830205013 | 72 | 0.0 | 0.0 | 0.00 | 0.00 | 0.00 | 44 | 1017.2 | |
| 20260830204013 | 72 | 0.0 | 0.0 | 0.00 | 0.00 | 0.00 | 44 | 1017.1 | |
| 20260830203013 | 72 | 0.0 | 0.0 | 0.00 | 0.00 | 0.00 | 44 | 1017.0 | |
| 20260830200749 | 72 | 0.0 | 0.0 | 0.00 | 0.00 | 0.00 | 43 | 1017.0 | |
| 20260830195749 | 72 | 0.0 | 0.0 | 0.00 | 0.00 | 0.00 | 44 | 1017.0 | |
| 20260830194749 | 72 | 0.0 | 0.0 | 0.00 | 0.00 | 0.00 | 44 | 1017.1 | |
| 20260830193749 | 72 | 0.0 | 0.0 | 0.00 | 0.00 | 0.00 | 45 | 1017.1 | |
| 20260830192526 | 71 | 0.0 | 0.0 | 0.00 | 0.00 | 0.00 | 46 | 1016.9 | |
| 20260830191526 | 71 | 0.0 | 0.0 | 0.00 | 0.00 | 0.00 | 46 | 1016.9 | |
| 20260830185306 | 71 | 0.0 | 0.0 | 0.00 | 0.00 | 0.00 | 46 | 1017.0 | |
| 20260830184302 | 72 | 0.0 | 0.0 | 0.00 | 0.00 | 0.00 | 46 | 1017.0 | |
| 20260830183302 | 71 | 0.0 | 0.0 | 0.00 | 0.00 | 0.00 | 47 | 1016.9 | |
| 20260830182305 | 71 | 0.0 | 0.0 | 0.00 | 0.00 | 0.00 | 47 | 1016.8 | |
| 20260830180038 | 71 | 0.0 | 0.0 | 0.00 | 0.00 | 0.00 | 47 | 1016.4 | |
| 20260830175038 | 71 | 0.0 | 0.0 | 0.00 | 0.00 | 0.00 | 46 | 1016.4 | |
| 20260830174038 | 72 | 0.0 | 0.0 | 0.00 | 0.00 | 0.00 | 45 | 1016.3 | |
| 20260830173038 | 72 | 0.0 | 0.0 | 0.00 | 0.00 | 0.00 | 45 | 1016.2 | |
| 20260830172038 | 73 | 0.0 | 0.0 | 0.00 | 0.00 | 0.00 | 44 | 1016.2 | |
| 20260830171038 | 74 | 0.0 | 0.0 | 0.00 | 0.00 | 0.00 | 43 | 1016.1 | |
| 20260830170038 | 74 | 0.0 | 0.0 | 0.00 | 0.00 | 0.00 | 43 | 1016.1 | |
| 20260830165038 | 75 | 0.0 | 0.0 | 0.00 | 0.00 | 0.00 | 42 | 1016.1 | |
| 20260830164038 | 76 | 0.0 | 0.0 | 0.00 | 0.00 | 0.00 | 40 | 1016.0 | |
| 20260830160551 | 76 | 0.0 | 0.0 | 0.00 | 0.00 | 0.00 | 39 | 1015.8 | |
| 20260830155551 | 77 | 0.0 | 0.0 | 0.00 | 0.00 | 0.00 | 39 | 1015.8 | |
| 20260830154551 | 77 | 0.0 | 0.0 | 0.00 | 0.00 | 0.00 | 39 | 1015.9 | |
| 20260830153550 | 77 | 0.0 | 0.0 | 0.00 | 0.00 | 0.00 | 40 | 1015.9 | |
| 20260830152551 | 77 | 0.0 | 0.0 | 0.00 | 0.00 | 0.00 | 38 | 1016.0 | |
| 20260830151551 | 77 | 0.0 | 0.0 | 0.00 | 0.00 | 0.00 | 40 | 1016.0 | |
| 20260830150551 | 77 | 0.0 | 0.0 | 0.00 | 0.00 | 0.00 | 40 | 1016.1 | |
| 20260830144327 | 76 | 0.0 | 0.0 | 0.00 | 0.00 | 0.00 | 41 | 1016.1 | |
| 20260830142103 | 77 | 0.0 | 0.0 | 0.00 | 0.00 | 0.00 | 39 | 1015.9 | |
| 20260830141103 | 78 | 0.0 | 0.0 | 0.00 | 0.00 | 0.00 | 38 | 1016.0 | |
| 20260830135103 | 76 | 0.0 | 0.0 | 0.00 | 0.00 | 0.00 | 40 | 1016.0 | |
| 20260830134103 | 75 | 0.0 | 0.0 | 0.00 | 0.00 | 0.00 | 42 | 1016.0 | |
| 20260830133107 | 77 | 0.0 | 0.0 | 0.00 | 0.00 | 0.00 | 41 | 1016.1 | |
| 20260830132103 | 75 | 0.0 | 0.0 | 0.00 | 0.00 | 0.00 | 43 | 1016.2 | |
| 20260830125838 | 75 | 0.0 | 0.0 | 0.00 | 0.00 | 0.00 | 43 | 1016.4 | |
| 20260830124840 | 74 | 0.0 | 0.0 | 0.00 | 0.00 | 0.00 | 43 | 1016.5 | |
| 20260830122614 | 74 | 0.0 | 0.0 | 0.00 | 0.00 | 0.00 | 44 | 1016.7 | |
| 20260830121614 | 74 | 0.0 | 0.0 | 0.00 | 0.00 | 0.00 | 44 | 1016.7 | |
| 20260830120614 | 76 | 0.0 | 0.0 | 0.00 | 0.00 | 0.00 | 43 | 1016.7 | |
| 20260830114355 | 75 | 0.0 | 0.0 | 0.00 | 0.00 | 0.00 | 40 | 1016.9 | |
| 20260830113355 | 76 | 0.0 | 0.0 | 0.00 | 0.00 | 0.00 | 42 | 1016.9 | |
| 20260830104642 | 74 | 0.0 | 0.0 | 0.00 | 0.00 | 0.00 | 41 | 1017.1 | |
| 20260830103644 | 73 | 0.0 | 0.0 | 0.00 | 0.00 | 0.00 | 41 | 1017.2 | |
| 20260830102640 | 73 | 0.0 | 0.0 | 0.00 | 0.00 | 0.00 | 42 | 1017.3 |